Location: Amanico Ergina Village
(37.7824°N, 122.4366°W)
Time: 20:53:30
(UTC+00:00)

Cosmos 2292 Rocket - Pass Details

Date: 29 October 2020
Orbit: 381 x 1451 km, 83.0° (Epoch: 24 November)

Event Time Altitude Azimuth Distance (km) Brightness Sun altitude
Rises 13:46:48 0° 185° (S) 2,260 6.5 -9.6°
Reaches altitude 10° 13:48:39 10° 185° (S) 1,447 5.5 -9.3°
Maximum altitude 13:51:42 87° 102° (ESE) 445 2.9 -8.7°
Drops below altitude 10° 13:55:22 10° 7° (N) 1,736 5.8 -8.0°
Sets 13:57:46 0° 7° (N) 2,776 6.9 -7.5°
